| time (UTC) | temp F | wind direction | speed knots | gust knots | rain 1hr in | rain 24hr in | rain mn in | humidity % | barometer mb |
| 20260502193337 | 75 | 43 | 3.5 | 7.8 | 0.00 | 0.91 | 0.00 | 54 | 1020.4 |
| 20260502192402 | 75 | 354 | 2.6 | 8.7 | 0.00 | 0.91 | 0.00 | 52 | 1020.6 |
| 20260502191326 | 75 | 324 | 2.6 | 13.0 | 0.00 | 0.91 | 0.00 | 53 | 1020.6 |
| 20260502190329 | 75 | 327 | 4.3 | 10.4 | 0.00 | 0.91 | 0.00 | 51 | 1020.7 |
| 20260502185332 | 75 | 355 | 1.7 | 12.2 | 0.00 | 1.04 | 0.00 | 56 | 1020.9 |
| 20260502184333 | 74 | 17 | 5.2 | 10.4 | 0.00 | 1.04 | 0.00 | 55 | 1020.9 |
| 20260502183338 | 74 | 350 | 3.5 | 12.2 | 0.00 | 1.04 | 0.00 | 53 | 1021.1 |
| 20260502182326 | 74 | 340 | 5.2 | 9.6 | 0.00 | 1.04 | 0.00 | 54 | 1021.2 |
| 20260502181331 | 74 | 359 | 3.5 | 13.0 | 0.00 | 1.04 | 0.00 | 52 | 1021.2 |
| 20260502180335 | 74 | 323 | 1.7 | 8.7 | 0.00 | 1.04 | 0.00 | 55 | 1021.5 |
| 20260502170402 | 71 | 49 | 4.3 | 12.2 | 0.00 | 1.14 | 0.00 | 60 | 1021.9 |
| 20260502164329 | 70 | 317 | 0.9 | 12.2 | 0.00 | 1.26 | 0.00 | 64 | 1022.0 |
| 20260502163333 | 69 | 333 | 4.3 | 11.3 | 0.00 | 1.26 | 0.00 | 66 | 1021.9 |
| 20260502162343 | 68 | 11 | 6.1 | 10.4 | 0.00 | 1.26 | 0.00 | 66 | 1022.0 |
| 20260502161327 | 67 | 40 | 3.5 | 9.6 | 0.00 | 1.26 | 0.00 | 69 | 1021.9 |
| 20260502160331 | 66 | 302 | 6.1 | 11.3 | 0.00 | 1.26 | 0.00 | 72 | 1021.9 |
| 20260502152330 | 64 | 308 | 3.5 | 9.6 | 0.00 | 1.50 | 0.00 | 76 | 1021.6 |
| 20260502151335 | 63 | 27 | 2.6 | 13.9 | 0.00 | 1.50 | 0.00 | 76 | 1021.5 |
| 20260502150359 | 63 | 350 | 5.2 | 11.3 | 0.00 | 1.50 | 0.00 | 77 | 1021.5 |
| 20260502130343 | 55 | 322 | 3.5 | 8.7 | 0.00 | 1.91 | 0.00 | 93 | 1020.3 |
| 20260502123328 | 54 | 280 | 2.6 | 7.8 | 0.00 | 2.12 | 0.00 | 93 | 1019.8 |
| 20260502122334 | 53 | 265 | 1.7 | 5.2 | 0.00 | 2.12 | 0.00 | 93 | 1019.7 |
| 20260502121341 | 53 | 317 | 1.7 | 4.3 | 0.00 | 2.12 | 0.00 | 93 | 1019.5 |
| 20260502120329 | 53 | 299 | 1.7 | 4.3 | 0.00 | 2.12 | 0.00 | 93 | 1019.5 |
| 20260502115332 | 53 | 322 | 2.6 | 7.0 | 0.00 | 2.26 | 0.00 | 93 | 1019.4 |
| 20260502114338 | 53 | 316 | 1.7 | 3.5 | 0.00 | 2.26 | 0.00 | 93 | 1019.4 |
| 20260502113325 | 53 | 350 | 0.9 | 4.3 | 0.00 | 2.26 | 0.00 | 93 | 1019.3 |
| 20260502112330 | 53 | 331 | 0.9 | 4.3 | 0.00 | 2.26 | 0.00 | 93 | 1019.1 |
| 20260502111356 | 53 | 4 | 1.7 | 5.2 | 0.00 | 2.26 | 0.00 | 93 | 1018.8 |
| 20260502110338 | 53 | 325 | 2.6 | 5.2 | 0.00 | 2.26 | 0.00 | 93 | 1018.7 |
| 20260502105327 | 53 | 323 | 1.7 | 6.1 | 0.00 | 2.39 | 0.00 | 93 | 1018.5 |
| 20260502104332 | 54 | 345 | 2.6 | 7.0 | 0.00 | 2.39 | 0.00 | 93 | 1018.6 |
| 20260502103337 | 54 | 354 | 1.7 | 7.0 | 0.00 | 2.39 | 0.00 | 93 | 1018.4 |
| 20260502102340 | 54 | 12 | 1.7 | 7.0 | 0.00 | 2.39 | 0.00 | 93 | 1018.5 |
| 20260502101344 | 54 | 2 | 2.6 | 7.8 | 0.00 | 2.39 | 0.00 | 93 | 1018.3 |
| 20260502091343 | 55 | 345 | 1.7 | 4.3 | 0.00 | 2.46 | 0.00 | 91 | 1017.1 |
| 20260502090329 | 56 | 40 | 2.6 | 5.2 | 0.00 | 2.46 | 0.00 | 91 | 1017.0 |
| 20260502071329 | 56 | 19 | 3.5 | 9.6 | 0.00 | 3.31 | 0.00 | 92 | 1016.6 |
| 20260502070334 | 56 | 64 | 1.7 | 6.1 | 0.00 | 3.31 | 0.00 | 92 | 1016.7 |
| 20260502065336 | 56 | 39 | 3.5 | 8.7 | 0.00 | 3.33 | 0.00 | 92 | 1016.7 |
| 20260502064402 | 56 | 358 | 1.7 | 8.7 | 0.00 | 3.33 | 0.00 | 93 | 1016.7 |
| 20260502063331 | 56 | 340 | 3.5 | 8.7 | 0.00 | 3.33 | 0.00 | 93 | 1016.8 |
| 20260502062336 | 56 | 15 | 3.5 | 11.3 | 0.00 | 3.33 | 0.00 | 93 | 1016.9 |
| 20260502061339 | 56 | 8 | 1.7 | 8.7 | 0.00 | 3.33 | 0.00 | 93 | 1016.7 |
| 20260502060325 | 56 | 38 | 5.2 | 9.6 | 0.00 | 3.33 | 0.00 | 93 | 1016.7 |
| 20260502055328 | 56 | 13 | 4.3 | 9.6 | 0.00 | 3.36 | 0.00 | 93 | 1016.7 |
| 20260502054333 | 56 | 306 | 5.2 | 13.9 | 0.00 | 3.36 | 0.00 | 93 | 1016.8 |
| 20260502053338 | 56 | 340 | 4.3 | 13.0 | 0.00 | 3.36 | 0.00 | 93 | 1016.7 |
| 20260502052343 | 56 | 21 | 4.3 | 13.9 | 0.00 | 3.36 | 0.00 | 94 | 1016.7 |
| 20260502051327 | 56 | 345 | 3.5 | 12.2 | 0.00 | 3.36 | 0.00 | 94 | 1016.7 |
| 20260502050331 | 56 | 20 | 4.3 | 12.2 | 0.00 | 3.36 | 0.00 | 94 | 1016.5 |
| 20260502045357 | 56 | 17 | 5.2 | 9.6 | 0.00 | 3.55 | 3.36 | 94 | 1016.4 |
| 20260502044325 | 56 | 350 | 4.3 | 9.6 | 0.00 | 3.55 | 3.36 | 94 | 1016.3 |
| 20260502043329 | 56 | 38 | 4.3 | 12.2 | 0.00 | 3.55 | 3.36 | 94 | 1016.2 |
| 20260502042334 | 57 | 2 | 5.2 | 11.3 | 0.00 | 3.55 | 3.36 | 94 | 1016.2 |
| 20260502041343 | 57 | 360 | 3.5 | 13.0 | 0.00 | 3.55 | 3.36 | 94 | 1016.3 |
| 20260502040330 | 57 | 356 | 3.5 | 9.6 | 0.00 | 3.55 | 3.36 | 94 | 1016.4 |
| 20260502035336 | 57 | 10 | 2.6 | 11.3 | 0.00 | 3.55 | 3.36 | 94 | 1016.2 |
| 20260502034324 | 57 | 360 | 3.5 | 12.2 | 0.00 | 3.55 | 3.36 | 94 | 1016.0 |
| 20260502033327 | 57 | 345 | 2.6 | 8.7 | 0.00 | 3.55 | 3.36 | 94 | 1016.1 |
| 20260502032332 | 57 | 350 | 2.6 | 10.4 | 0.00 | 3.55 | 3.36 | 94 | 1016.2 |
| 20260502031339 | 57 | 345 | 3.5 | 10.4 | 0.00 | 3.55 | 3.36 | 94 | 1016.1 |
| 20260502030345 | 57 | 358 | 3.5 | 10.4 | 0.00 | 3.55 | 3.36 | 94 | 1016.0 |
| 20260502025401 | 57 | 55 | 2.6 | 11.3 | 0.00 | 3.55 | 3.36 | 95 | 1015.9 |
| 20260502024325 | 57 | 8 | 3.5 | 12.2 | 0.00 | 3.55 | 3.36 | 95 | 1015.6 |
| 20260502023330 | 57 | 27 | 3.5 | 12.2 | 0.01 | 3.55 | 3.36 | 94 | 1015.4 |
| 20260502022334 | 57 | 17 | 5.2 | 14.8 | 0.01 | 3.55 | 3.36 | 94 | 1015.0 |
| 20260502021337 | 57 | 4 | 5.2 | 14.8 | 0.02 | 3.55 | 3.36 | 94 | 1014.4 |
| 20260502020342 | 58 | 8 | 4.3 | 12.2 | 0.03 | 3.55 | 3.36 | 95 | 1014.2 |
| 20260502015327 | 58 | 356 | 3.5 | 11.3 | 0.04 | 3.55 | 3.36 | 94 | 1014.2 |
| 20260502014351 | 58 | 345 | 6.1 | 13.0 | 0.08 | 3.55 | 3.36 | 94 | 1013.8 |
| 20260502013337 | 58 | 4 | 6.1 | 13.9 | 0.13 | 3.54 | 3.35 | 95 | 1014.0 |
| 20260502012323 | 59 | 358 | 5.2 | 13.9 | 0.14 | 3.53 | 3.34 | 94 | 1014.0 |
| 20260502011329 | 59 | 359 | 4.3 | 15.6 | 0.15 | 3.53 | 3.34 | 95 | 1014.0 |
| 20260502010339 | 60 | 326 | 5.2 | 11.3 | 0.14 | 3.52 | 3.33 | 95 | 1013.8 |
| 20260502005345 | 60 | 24 | 3.5 | 8.7 | 0.15 | 3.51 | 3.32 | 95 | 1013.4 |
| 20260502004330 | 60 | 360 | 5.2 | 13.9 | 0.14 | 3.47 | 3.28 | 95 | 1013.5 |
| 20260502003357 | 60 | 321 | 3.5 | 8.7 | 0.09 | 3.40 | 3.21 | 95 | 1013.8 |
| 20260502002344 | 60 | 316 | 2.6 | 8.7 | 0.11 | 3.39 | 3.20 | 95 | 1014.4 |
| 20260502001329 | 60 | 324 | 2.6 | 9.6 | 0.17 | 3.38 | 3.19 | 95 | 1013.1 |
| 20260502000356 | 61 | 345 | 4.3 | 11.3 | 0.26 | 3.38 | 3.19 | 95 | 1012.8 |
| 20260501235339 | 61 | 29 | 3.5 | 10.4 | 0.24 | 3.36 | 3.17 | 95 | 1012.9 |
| 20260501234324 | 61 | 350 | 4.3 | 9.6 | 0.22 | 3.33 | 3.14 | 95 | 1013.4 |
| 20260501233331 | 61 | 42 | 5.2 | 12.2 | 0.22 | 3.31 | 3.12 | 95 | 1013.3 |
| 20260501232332 | 61 | 22 | 2.6 | 9.6 | 0.25 | 3.28 | 3.09 | 95 | 1013.4 |
| 20260501231356 | 61 | 356 | 3.5 | 9.6 | 0.18 | 3.21 | 3.02 | 95 | 1012.5 |
| 20260501230339 | 62 | 316 | 2.6 | 9.6 | 0.09 | 3.12 | 2.93 | 95 | 1012.8 |
| 20260501225324 | 62 | 53 | 2.6 | 7.0 | 0.09 | 3.12 | 2.93 | 95 | 1011.0 |
| 20260501224350 | 62 | 40 | 1.7 | 11.3 | 0.09 | 3.11 | 2.92 | 95 | 1010.4 |
| 20260501223334 | 62 | 15 | 2.6 | 13.0 | 0.06 | 3.08 | 2.89 | 95 | 1011.0 |
| 20260501222339 | 62 | 322 | 2.6 | 8.7 | 0.01 | 3.03 | 2.84 | 95 | 1012.0 |
| 20260501221326 | 62 | 21 | 2.6 | 9.6 | 0.02 | 3.03 | 2.84 | 95 | 1010.6 |
| 20260501220332 | 62 | 345 | 2.6 | 11.3 | 0.03 | 3.03 | 2.84 | 95 | 1010.0 |
| 20260501215339 | 62 | 263 | 1.7 | 7.8 | 0.13 | 3.03 | 2.84 | 95 | 1010.4 |
| 20260501214323 | 62 | 13 | 3.5 | 10.4 | 0.16 | 3.02 | 2.83 | 95 | 1010.8 |
| 20260501213327 | 62 | 284 | 6.1 | 18.2 | 0.19 | 3.02 | 2.83 | 95 | 1010.7 |
| 20260501212335 | 63 | 27 | 7.8 | 13.9 | 0.22 | 3.02 | 2.83 | 95 | 1010.8 |
| 20260501211338 | 63 | 324 | 2.6 | 12.2 | 0.24 | 3.01 | 2.82 | 95 | 1011.4 |
| 20260501210323 | 64 | 29 | 4.3 | 9.6 | 0.24 | 2.99 | 2.80 | 95 | 1011.0 |
| 20260501205348 | 64 | 345 | 3.5 | 13.0 | 0.15 | 2.89 | 2.70 | 95 | 1011.0 |
| 20260501204331 | 64 | 345 | 4.3 | 12.2 | 0.13 | 2.86 | 2.67 | 95 | 1010.7 |
| 20260501203358 | 64 | 299 | 5.2 | 13.9 | 0.11 | 2.83 | 2.64 | 95 | 1010.6 |
| 20260501202324 | 64 | 336 | 5.2 | 11.3 | 0.14 | 2.80 | 2.61 | 95 | 1010.6 |
| 20260501201331 | 63 | 33 | 4.3 | 12.2 | 0.13 | 2.77 | 2.58 | 95 | 1010.1 |
| 20260501200336 | 64 | 356 | 5.2 | 11.3 | 0.11 | 2.75 | 2.56 | 95 | 1010.4 |
| 20260501195340 | 63 | 325 | 5.2 | 11.3 | 0.10 | 2.74 | 2.55 | 95 | 1009.6 |
| 20260501194327 | 64 | 50 | 3.5 | 9.6 | 0.11 | 2.73 | 2.54 | 95 | 1008.6 |